| time (UTC) | temp F | wind direction | speed knots | gust knots | rain 1hr in | rain 24hr in | rain mn in | humidity % | barometer mb |
| 20260508004526 | 54 | 56 | 0.0 | 0.0 | 0.00 | 0.00 | 0.00 | 78 | 1010.5 |
| 20260508003029 | 55 | 55 | 0.0 | 0.0 | 0.00 | 0.00 | 0.00 | 76 | 1010.7 |
| 20260508001519 | 56 | 89 | 0.0 | 0.0 | 0.00 | 0.00 | 0.00 | 74 | 1010.6 |
| 20260508000013 | 56 | 137 | 0.0 | 0.0 | 0.00 | 0.00 | 0.00 | 76 | 1010.8 |
| 20260507234510 | 56 | 137 | 0.0 | 0.0 | 0.00 | 0.00 | 0.00 | 72 | 1011.0 |
| 20260507233005 | 55 | 137 | 0.0 | 0.0 | 0.00 | 0.00 | 0.00 | 72 | 1011.2 |
| 20260507231501 | 56 | 137 | 0.0 | 0.0 | 0.00 | 0.00 | 0.00 | 74 | 1011.4 |
| 20260507230058 | 56 | 137 | 0.0 | 0.0 | 0.00 | 0.00 | 0.00 | 72 | 1011.4 |
| 20260507224656 | 56 | 137 | 0.0 | 0.0 | 0.00 | 0.00 | 0.00 | 68 | 1011.2 |
| 20260507223056 | 56 | 137 | 0.0 | 0.0 | 0.00 | 0.00 | 0.00 | 69 | 1011.3 |
| 20260507221554 | 56 | 137 | 0.0 | 0.0 | 0.00 | 0.00 | 0.00 | 70 | 1011.2 |
| 20260507220054 | 56 | 137 | 0.0 | 0.0 | 0.00 | 0.00 | 0.00 | 73 | 1011.3 |
| 20260507214649 | 55 | 137 | 0.0 | 0.0 | 0.00 | 0.00 | 0.00 | 78 | 1011.3 |
| 20260507213102 | 55 | 137 | 0.0 | 0.0 | 0.00 | 0.00 | 0.00 | 78 | 1011.3 |
| 20260507211543 | 55 | 137 | 0.0 | 0.0 | 0.00 | 0.00 | 0.00 | 74 | 1011.4 |
| 20260507210039 | 55 | 137 | 0.0 | 0.0 | 0.00 | 0.00 | 0.00 | 69 | 1011.3 |
| 20260507204632 | 55 | 359 | 0.0 | 0.0 | 0.00 | 0.00 | 0.00 | 67 | 1011.3 |
| 20260507203028 | 55 | 359 | 0.0 | 0.0 | 0.00 | 0.00 | 0.00 | 66 | 1011.6 |
| 20260507201524 | 56 | 350 | 0.0 | 0.0 | 0.00 | 0.00 | 0.00 | 65 | 1011.5 |
| 20260507200032 | 56 | 359 | 0.0 | 0.0 | 0.00 | 0.00 | 0.00 | 64 | 1011.6 |
| 20260507194618 | 56 | 210 | 0.0 | 0.0 | 0.00 | 0.00 | 0.00 | 63 | 1011.6 |
| 20260507193013 | 56 | 359 | 4.3 | 0.0 | 0.00 | 0.00 | 0.00 | 61 | 1011.6 |
| 20260507191509 | 57 | 241 | 2.6 | 0.0 | 0.00 | 0.00 | 0.00 | 60 | 1011.4 |
| 20260507190020 | 57 | 359 | 4.3 | 0.0 | 0.00 | 0.00 | 0.00 | 60 | 1011.2 |
| 20260507184603 | 57 | 359 | 3.5 | 0.0 | 0.00 | 0.00 | 0.00 | 60 | 1011.1 |
| 20260507183100 | 58 | 253 | 5.2 | 0.0 | 0.00 | 0.00 | 0.00 | 59 | 1011.1 |
| 20260507181555 | 58 | 313 | 5.2 | 0.0 | 0.00 | 0.00 | 0.00 | 59 | 1011.0 |
| 20260507180053 | 58 | 359 | 5.2 | 0.0 | 0.00 | 0.00 | 0.00 | 60 | 1010.8 |
| 20260507174548 | 59 | 359 | 4.3 | 0.0 | 0.00 | 0.00 | 0.00 | 59 | 1010.5 |
| 20260507173042 | 59 | 281 | 4.3 | 0.0 | 0.00 | 0.00 | 0.00 | 59 | 1010.5 |
| 20260507171538 | 59 | 284 | 7.8 | 0.0 | 0.00 | 0.00 | 0.00 | 58 | 1010.4 |
| 20260507170035 | 60 | 285 | 7.0 | 0.0 | 0.00 | 0.00 | 0.00 | 59 | 1010.6 |
| 20260507164529 | 60 | 359 | 7.0 | 0.0 | 0.00 | 0.00 | 0.00 | 58 | 1010.2 |
| 20260507163025 | 60 | 280 | 7.8 | 0.0 | 0.00 | 0.00 | 0.00 | 59 | 1010.2 |
| 20260507161520 | 60 | 189 | 7.0 | 0.0 | 0.00 | 0.00 | 0.00 | 57 | 1010.3 |
| 20260507160017 | 60 | 359 | 7.8 | 0.0 | 0.00 | 0.00 | 0.00 | 57 | 1010.3 |
| 20260507154513 | 60 | 196 | 7.8 | 0.0 | 0.00 | 0.00 | 0.00 | 59 | 1010.4 |
| 20260507153007 | 60 | 357 | 7.0 | 0.0 | 0.00 | 0.00 | 0.00 | 59 | 1010.4 |
| 20260507151502 | 60 | 168 | 5.2 | 0.0 | 0.00 | 0.00 | 0.00 | 58 | 1010.6 |
| 20260507150100 | 60 | 196 | 8.7 | 0.0 | 0.00 | 0.00 | 0.00 | 60 | 1010.6 |
| 20260507144558 | 60 | 357 | 10.4 | 0.0 | 0.00 | 0.00 | 0.00 | 60 | 1010.6 |
| 20260507143049 | 59 | 196 | 11.3 | 0.0 | 0.00 | 0.00 | 0.00 | 63 | 1010.6 |
| 20260507141552 | 60 | 357 | 8.7 | 0.0 | 0.00 | 0.00 | 0.00 | 61 | 1010.5 |
| 20260507134537 | 59 | 189 | 13.0 | 0.0 | 0.00 | 0.00 | 0.00 | 58 | 1010.4 |
| 20260507133034 | 61 | 240 | 11.3 | 0.0 | 0.00 | 0.00 | 0.00 | 60 | 1010.3 |
| 20260507131528 | 59 | 186 | 13.9 | 0.0 | 0.00 | 0.00 | 0.00 | 60 | 1010.5 |
| 20260507130024 | 60 | 186 | 11.3 | 0.0 | 0.00 | 0.00 | 0.00 | 60 | 1010.5 |
| 20260507124523 | 60 | 184 | 11.3 | 0.0 | 0.00 | 0.00 | 0.00 | 61 | 1010.6 |
| 20260507123015 | 59 | 357 | 11.3 | 0.0 | 0.00 | 0.00 | 0.00 | 61 | 1010.5 |
| 20260507121510 | 60 | 357 | 12.2 | 0.0 | 0.00 | 0.00 | 0.00 | 67 | 1010.6 |
| 20260507120006 | 60 | 174 | 11.3 | 0.0 | 0.00 | 0.00 | 0.00 | 63 | 1010.9 |
| 20260507114502 | 59 | 169 | 9.6 | 0.0 | 0.00 | 0.00 | 0.00 | 60 | 1011.0 |
| 20260507113100 | 60 | 353 | 8.7 | 0.0 | 0.00 | 0.00 | 0.00 | 62 | 1011.0 |
| 20260507111553 | 59 | 271 | 8.7 | 0.0 | 0.00 | 0.00 | 0.00 | 60 | 1011.2 |
| 20260507110049 | 59 | 289 | 7.0 | 0.0 | 0.00 | 0.00 | 0.00 | 57 | 1010.9 |
| 20260507104545 | 59 | 357 | 7.8 | 0.0 | 0.00 | 0.00 | 0.00 | 56 | 1011.3 |
| 20260507103038 | 58 | 182 | 6.1 | 0.0 | 0.00 | 0.00 | 0.00 | 55 | 1011.3 |
| 20260507101539 | 57 | 280 | 8.7 | 0.0 | 0.00 | 0.00 | 0.00 | 57 | 1011.5 |
| 20260507100033 | 57 | 281 | 9.6 | 0.0 | 0.00 | 0.00 | 0.00 | 59 | 1011.3 |
| 20260507094526 | 57 | 280 | 7.0 | 0.0 | 0.00 | 0.00 | 0.00 | 61 | 1011.6 |
| 20260507093034 | 56 | 359 | 9.6 | 0.0 | 0.00 | 0.00 | 0.00 | 61 | 1011.5 |
| 20260507091516 | 56 | 359 | 8.7 | 0.0 | 0.00 | 0.00 | 0.00 | 66 | 1011.5 |
| 20260507090014 | 55 | 359 | 7.8 | 0.0 | 0.00 | 0.00 | 0.00 | 68 | 1011.4 |
| 20260507084506 | 55 | 281 | 10.4 | 0.0 | 0.00 | 0.00 | 0.00 | 69 | 1011.5 |
| 20260507083104 | 54 | 188 | 13.0 | 0.0 | 0.00 | 0.00 | 0.00 | 69 | 1011.4 |
| 20260507081556 | 54 | 357 | 12.2 | 0.0 | 0.00 | 0.00 | 0.00 | 71 | 1011.2 |
| 20260507080116 | 53 | 277 | 11.3 | 0.0 | 0.00 | 0.00 | 0.00 | 73 | 1011.0 |
| 20260507074556 | 53 | 280 | 9.6 | 0.0 | 0.00 | 0.00 | 0.00 | 71 | 1010.9 |
| 20260507073042 | 53 | 280 | 11.3 | 0.0 | 0.00 | 0.00 | 0.00 | 70 | 1010.9 |
| 20260507071553 | 53 | 357 | 11.3 | 0.0 | 0.00 | 0.00 | 0.00 | 71 | 1010.9 |
| 20260507070035 | 52 | 359 | 14.8 | 0.0 | 0.00 | 0.00 | 0.00 | 72 | 1010.4 |
| 20260507064527 | 51 | 281 | 13.9 | 0.0 | 0.00 | 0.00 | 0.00 | 73 | 1010.6 |
| 20260507063024 | 51 | 280 | 13.0 | 0.0 | 0.00 | 0.00 | 0.00 | 69 | 1010.5 |
| 20260507061518 | 51 | 277 | 13.0 | 0.0 | 0.00 | 0.00 | 0.00 | 69 | 1010.5 |
| 20260507060018 | 51 | 281 | 11.3 | 0.0 | 0.00 | 0.00 | 0.00 | 67 | 1010.5 |
| 20260507054509 | 50 | 359 | 11.3 | 0.0 | 0.00 | 0.00 | 0.00 | 70 | 1010.4 |
| 20260507053003 | 50 | 357 | 13.9 | 0.0 | 0.00 | 0.00 | 0.00 | 72 | 1010.2 |
| 20260507051601 | 50 | 359 | 17.4 | 0.0 | 0.00 | 0.00 | 0.00 | 69 | 1010.0 |
| 20260507050055 | 49 | 357 | 14.8 | 0.0 | 0.00 | 0.00 | 0.00 | 77 | 1010.1 |
| 20260507044551 | 48 | 281 | 12.2 | 0.0 | 0.00 | 0.00 | 0.00 | 80 | 1010.2 |
| 20260507043044 | 49 | 277 | 13.9 | 0.0 | 0.00 | 0.00 | 0.00 | 76 | 1010.0 |
| 20260507041540 | 49 | 288 | 8.7 | 0.0 | 0.00 | 0.00 | 0.00 | 74 | 1009.9 |
| 20260507040040 | 49 | 261 | 7.0 | 0.0 | 0.00 | 0.00 | 0.00 | 74 | 1010.0 |
| 20260507034532 | 49 | 357 | 7.0 | 0.0 | 0.00 | 0.00 | 0.00 | 75 | 1010.0 |
| 20260507033027 | 49 | 285 | 7.8 | 0.0 | 0.00 | 0.00 | 0.00 | 74 | 1009.7 |
| 20260507031523 | 49 | 299 | 4.3 | 0.0 | 0.00 | 0.00 | 0.00 | 74 | 1009.7 |
| 20260507030019 | 49 | 299 | 5.2 | 0.0 | 0.00 | 0.00 | 0.00 | 77 | 1009.3 |
| 20260507024515 | 49 | 315 | 2.6 | 0.0 | 0.00 | 0.00 | 0.00 | 77 | 1009.2 |
| 20260507023009 | 50 | 0 | 1.7 | 0.0 | 0.00 | 0.00 | 0.00 | 76 | 1009.2 |
| 20260507021511 | 50 | 357 | 10.4 | 0.0 | 0.00 | 0.00 | 0.00 | 74 | 1009.1 |
| 20260507020002 | 50 | 281 | 13.9 | 0.0 | 0.00 | 0.00 | 0.00 | 75 | 1009.1 |
| 20260507014608 | 50 | 199 | 12.2 | 0.0 | 0.00 | 0.00 | 0.00 | 80 | 1009.2 |
| 20260507013053 | 49 | 188 | 16.5 | 0.0 | 0.00 | 0.00 | 0.00 | 83 | 1009.1 |
| 20260507011600 | 49 | 278 | 15.6 | 0.0 | 0.00 | 0.00 | 0.00 | 83 | 1009.1 |
| 20260507010045 | 50 | 280 | 15.6 | 0.0 | 0.00 | 0.00 | 0.00 | 81 | 1008.3 |